| time (UTC) | temp F | wind direction | speed knots | gust knots | rain 1hr in | rain 24hr in | rain mn in | humidity % | barometer mb |
| 20260903165604 | 79 | 254 | 0.9 | 5.2 | 0.00 | 0.85 | 0.37 | 84 | 1014.5 |
| 20260903164604 | 78 | 291 | 4.3 | 8.7 | 0.00 | 0.85 | 0.37 | 83 | 1014.7 |
| 20260903164104 | 78 | 291 | 2.6 | 7.8 | 0.00 | 0.85 | 0.37 | 84 | 1014.7 |
| 20260903163604 | 78 | 269 | 3.5 | 7.0 | 0.00 | 0.85 | 0.37 | 83 | 1014.8 |
| 20260903162604 | 78 | 291 | 1.7 | 4.3 | 0.00 | 0.85 | 0.37 | 84 | 1014.9 |
| 20260903161605 | 78 | 295 | 2.6 | 8.7 | 0.00 | 0.85 | 0.37 | 84 | 1015.1 |
| 20260903161104 | 78 | 233 | 2.6 | 6.1 | 0.00 | 0.85 | 0.37 | 85 | 1015.1 |
| 20260903160606 | 78 | 287 | 1.7 | 7.0 | 0.00 | 0.85 | 0.37 | 86 | 1015.2 |
| 20260903155604 | 77 | 255 | 0.9 | 4.3 | 0.00 | 0.85 | 0.37 | 85 | 1015.2 |
| 20260903155105 | 77 | 312 | 0.9 | 5.2 | 0.00 | 0.85 | 0.37 | 86 | 1015.3 |
| 20260903154604 | 77 | 269 | 2.6 | 8.7 | 0.00 | 0.85 | 0.37 | 86 | 1015.4 |
| 20260903154104 | 77 | 280 | 1.7 | 6.1 | 0.00 | 0.85 | 0.37 | 85 | 1015.5 |
| 20260903153604 | 77 | 272 | 5.2 | 7.0 | 0.00 | 0.85 | 0.37 | 87 | 1015.7 |
| 20260903152604 | 76 | 214 | 1.7 | 6.1 | 0.00 | 0.85 | 0.37 | 89 | 1015.6 |
| 20260903152104 | 75 | 263 | 1.7 | 2.6 | 0.00 | 0.85 | 0.37 | 89 | 1015.6 |
| 20260903151605 | 75 | 260 | 3.5 | 7.0 | 0.00 | 0.85 | 0.37 | 89 | 1015.6 |
| 20260903151104 | 75 | 266 | 0.9 | 4.3 | 0.00 | 0.85 | 0.37 | 90 | 1015.7 |
| 20260903150105 | 74 | 213 | 2.6 | 4.3 | 0.00 | 0.85 | 0.37 | 90 | 1015.9 |
| 20260903145604 | 74 | 291 | 0.9 | 4.3 | 0.00 | 0.85 | 0.37 | 91 | 1015.9 |
| 20260903144604 | 73 | 265 | 2.6 | 7.0 | 0.00 | 0.85 | 0.37 | 92 | 1015.9 |
| 20260903144105 | 73 | 256 | 2.6 | 5.2 | 0.00 | 0.85 | 0.37 | 93 | 1015.8 |
| 20260903143604 | 73 | 270 | 4.3 | 7.0 | 0.00 | 0.85 | 0.37 | 92 | 1015.8 |
| 20260903143104 | 72 | 269 | 2.6 | 7.0 | 0.00 | 0.85 | 0.37 | 93 | 1015.8 |
| 20260903142605 | 72 | 278 | 2.6 | 8.7 | 0.00 | 0.85 | 0.37 | 94 | 1015.8 |
| 20260903142104 | 72 | 256 | 5.2 | 10.4 | 0.00 | 0.85 | 0.37 | 94 | 1015.8 |
| 20260903141604 | 72 | 250 | 2.6 | 12.2 | 0.00 | 0.85 | 0.37 | 95 | 1015.8 |
| 20260903141105 | 72 | 278 | 1.7 | 8.7 | 0.00 | 0.85 | 0.37 | 96 | 1015.8 |
| 20260903140605 | 72 | 257 | 1.7 | 7.8 | 0.00 | 0.85 | 0.37 | 96 | 1015.6 |
| 20260903140104 | 71 | 295 | 4.3 | 8.7 | 0.00 | 0.85 | 0.37 | 96 | 1015.6 |
| 20260903135605 | 71 | 271 | 4.3 | 7.0 | 0.00 | 0.85 | 0.37 | 96 | 1015.6 |
| 20260903135104 | 71 | 263 | 1.7 | 7.8 | 0.00 | 0.85 | 0.37 | 97 | 1015.7 |
| 20260903134606 | 71 | 299 | 5.2 | 10.4 | 0.00 | 0.85 | 0.37 | 97 | 1015.8 |
| 20260903133604 | 70 | 280 | 1.7 | 5.2 | 0.00 | 0.85 | 0.37 | 97 | 1015.8 |
| 20260903132604 | 70 | 257 | 1.7 | 6.1 | 0.00 | 0.85 | 0.37 | 97 | 1015.8 |
| 20260903132104 | 70 | 259 | 1.7 | 4.3 | 0.00 | 0.85 | 0.37 | 97 | 1015.9 |
| 20260903131604 | 70 | 268 | 1.7 | 5.2 | 0.00 | 0.85 | 0.37 | 97 | 1015.9 |
| 20260903131104 | 69 | 261 | 0.9 | 7.0 | 0.00 | 0.85 | 0.37 | 97 | 1015.7 |
| 20260903130605 | 70 | 280 | 2.6 | 5.2 | 0.00 | 0.85 | 0.37 | 97 | 1015.8 |
| 20260903130104 | 70 | 256 | 1.7 | 4.3 | 0.00 | 0.85 | 0.37 | 97 | 1015.7 |
| 20260903125605 | 70 | 252 | 0.0 | 4.3 | 0.00 | 0.85 | 0.37 | 97 | 1015.6 |
| 20260903125105 | 70 | 252 | 0.0 | 0.9 | 0.00 | 0.85 | 0.37 | 97 | 1015.7 |
| 20260903124604 | 70 | 252 | 0.0 | 1.7 | 0.00 | 0.85 | 0.37 | 97 | 1015.8 |
| 20260903123605 | 69 | 252 | 0.0 | 0.9 | 0.00 | 0.85 | 0.37 | 97 | 1016.2 |
| 20260903123103 | 69 | 252 | 0.0 | 0.0 | 0.00 | 0.85 | 0.37 | 97 | 1016.1 |
| 20260903122104 | 69 | 252 | 0.0 | 0.0 | 0.00 | 0.85 | 0.37 | 97 | 1016.1 |
| 20260903121604 | 68 | 252 | 0.0 | 0.0 | 0.00 | 0.85 | 0.37 | 97 | 1016.2 |
| 20260903121104 | 68 | 252 | 0.0 | 1.7 | 0.00 | 0.85 | 0.37 | 97 | 1016.1 |
| 20260903120604 | 68 | 252 | 0.9 | 2.6 | 0.00 | 0.85 | 0.37 | 97 | 1016.1 |
| 20260903115604 | 68 | 252 | 0.0 | 1.7 | 0.00 | 0.85 | 0.37 | 97 | 1016.1 |
| 20260903115105 | 67 | 252 | 0.0 | 0.0 | 0.00 | 0.85 | 0.37 | 97 | 1016.1 |
| 20260903114604 | 67 | 252 | 0.0 | 0.0 | 0.00 | 0.85 | 0.37 | 97 | 1016.1 |
| 20260903114103 | 67 | 252 | 0.0 | 0.0 | 0.00 | 0.85 | 0.37 | 97 | 1016.3 |
| 20260903113104 | 67 | 252 | 0.0 | 0.0 | 0.00 | 0.85 | 0.37 | 97 | 1016.3 |
| 20260903112104 | 67 | 252 | 0.0 | 0.0 | 0.00 | 0.85 | 0.37 | 97 | 1016.6 |
| 20260903111604 | 66 | 252 | 0.0 | 0.0 | 0.00 | 0.85 | 0.37 | 97 | 1016.5 |
| 20260903111104 | 66 | 252 | 0.0 | 0.0 | 0.00 | 0.85 | 0.37 | 97 | 1016.2 |
| 20260903110604 | 66 | 252 | 0.0 | 0.0 | 0.00 | 0.85 | 0.37 | 97 | 1016.3 |
| 20260903110104 | 66 | 252 | 0.0 | 0.0 | 0.00 | 0.85 | 0.37 | 97 | 1016.3 |
| 20260903105604 | 66 | 252 | 0.0 | 0.0 | 0.00 | 0.85 | 0.37 | 97 | 1016.2 |
| 20260903105104 | 66 | 252 | 0.0 | 0.0 | 0.00 | 0.85 | 0.37 | 97 | 1016.3 |
| 20260903104604 | 66 | 252 | 0.0 | 0.0 | 0.00 | 0.85 | 0.37 | 97 | 1016.3 |
| 20260903104104 | 66 | 252 | 0.0 | 0.0 | 0.00 | 0.85 | 0.37 | 97 | 1016.4 |
| 20260903103604 | 66 | 252 | 0.0 | 0.0 | 0.00 | 0.85 | 0.37 | 97 | 1016.4 |
| 20260903103105 | 66 | 252 | 0.0 | 0.0 | 0.00 | 0.85 | 0.37 | 97 | 1016.3 |
| 20260903102605 | 66 | 252 | 0.0 | 0.0 | 0.01 | 0.85 | 0.37 | 97 | 1016.3 |
| 20260903101604 | 66 | 252 | 0.0 | 0.0 | 0.01 | 0.85 | 0.37 | 97 | 1016.5 |
| 20260903101104 | 66 | 252 | 0.0 | 0.0 | 0.01 | 0.85 | 0.37 | 97 | 1016.5 |
| 20260903100604 | 66 | 252 | 0.0 | 0.0 | 0.01 | 0.85 | 0.37 | 97 | 1016.4 |
| 20260903100103 | 66 | 252 | 0.0 | 0.0 | 0.01 | 0.85 | 0.37 | 97 | 1016.5 |
| 20260903095605 | 66 | 252 | 0.0 | 0.0 | 0.01 | 0.85 | 0.37 | 97 | 1016.4 |
| 20260903095104 | 66 | 252 | 0.0 | 0.0 | 0.01 | 0.85 | 0.37 | 97 | 1016.2 |
| 20260903094604 | 66 | 252 | 0.0 | 0.0 | 0.01 | 0.85 | 0.37 | 97 | 1016.3 |
| 20260903094104 | 66 | 252 | 0.0 | 0.0 | 0.01 | 0.85 | 0.37 | 97 | 1016.1 |
| 20260903093603 | 66 | 252 | 0.0 | 0.0 | 0.01 | 0.85 | 0.37 | 96 | 1016.1 |
| 20260903092605 | 66 | 252 | 0.0 | 0.0 | 0.00 | 0.84 | 0.36 | 97 | 1016.1 |
| 20260903092104 | 66 | 252 | 0.0 | 0.0 | 0.00 | 0.84 | 0.36 | 97 | 1016.2 |
| 20260903091604 | 66 | 252 | 0.0 | 0.0 | 0.00 | 0.84 | 0.36 | 96 | 1015.9 |
| 20260903091104 | 66 | 252 | 0.0 | 0.9 | 0.00 | 0.84 | 0.36 | 97 | 1015.8 |
| 20260903090604 | 66 | 252 | 0.9 | 1.7 | 0.00 | 0.84 | 0.36 | 97 | 1016.2 |
| 20260903090104 | 66 | 252 | 0.0 | 0.0 | 0.00 | 0.84 | 0.36 | 97 | 1016.3 |
| 20260903085604 | 66 | 252 | 0.0 | 0.0 | 0.00 | 0.84 | 0.36 | 97 | 1016.3 |
| 20260903085103 | 66 | 252 | 0.0 | 0.0 | 0.00 | 0.84 | 0.36 | 97 | 1016.1 |
| 20260903084604 | 67 | 252 | 1.7 | 2.6 | 0.00 | 0.84 | 0.36 | 97 | 1016.3 |
| 20260903083104 | 66 | 252 | 0.0 | 0.0 | 0.01 | 0.84 | 0.36 | 96 | 1016.3 |
| 20260903082603 | 66 | 252 | 0.0 | 0.0 | 0.01 | 0.84 | 0.36 | 96 | 1016.1 |
| 20260903082104 | 66 | 252 | 0.0 | 0.0 | 0.01 | 0.84 | 0.36 | 96 | 1016.1 |
| 20260903081104 | 66 | 252 | 0.9 | 2.6 | 0.01 | 0.84 | 0.36 | 96 | 1016.2 |
| 20260903080603 | 67 | 252 | 0.0 | 1.7 | 0.01 | 0.84 | 0.36 | 96 | 1016.2 |
| 20260903080104 | 67 | 252 | 0.0 | 0.9 | 0.01 | 0.84 | 0.36 | 96 | 1016.1 |
| 20260903075604 | 67 | 252 | 0.9 | 2.6 | 0.01 | 0.84 | 0.36 | 96 | 1016.0 |
| 20260903075103 | 67 | 252 | 0.0 | 0.0 | 0.01 | 0.84 | 0.36 | 96 | 1016.2 |
| 20260903074604 | 67 | 252 | 0.0 | 0.0 | 0.01 | 0.84 | 0.36 | 96 | 1016.4 |
| 20260903074104 | 67 | 252 | 0.0 | 0.0 | 0.01 | 0.84 | 0.36 | 96 | 1016.5 |
| 20260903073605 | 67 | 252 | 0.0 | 0.0 | 0.01 | 0.84 | 0.36 | 96 | 1016.6 |
| 20260903073103 | 67 | 252 | 0.0 | 0.0 | 0.00 | 0.83 | 0.35 | 96 | 1016.6 |
| 20260903072604 | 67 | 252 | 0.0 | 0.0 | 0.00 | 0.83 | 0.35 | 96 | 1016.7 |
| 20260903072104 | 67 | 252 | 0.0 | 0.9 | 0.00 | 0.83 | 0.35 | 96 | 1016.7 |
| 20260903071604 | 67 | 252 | 0.0 | 1.7 | 0.00 | 0.83 | 0.35 | 96 | 1016.7 |
| 20260903070604 | 67 | 252 | 0.0 | 1.7 | 0.01 | 0.83 | 0.35 | 96 | 1017.1 |
| 20260903065605 | 67 | 252 | 0.0 | 0.0 | 0.01 | 0.83 | 0.35 | 96 | 1016.9 |
| 20260903065104 | 67 | 252 | 0.0 | 0.0 | 0.01 | 0.83 | 0.35 | 96 | 1016.8 |
| 20260903064605 | 67 | 252 | 0.9 | 2.6 | 0.01 | 0.83 | 0.35 | 96 | 1016.7 |
| 20260903064104 | 67 | 252 | 0.0 | 0.9 | 0.01 | 0.83 | 0.35 | 96 | 1016.5 |
| 20260903063604 | 67 | 247 | 1.7 | 4.3 | 0.01 | 0.83 | 0.35 | 96 | 1016.5 |
| 20260903063103 | 66 | 220 | 1.7 | 6.1 | 0.02 | 0.83 | 0.35 | 96 | 1016.5 |
| 20260903062604 | 67 | 252 | 1.7 | 4.3 | 0.02 | 0.83 | 0.35 | 96 | 1016.7 |
| 20260903062104 | 66 | 264 | 1.7 | 4.3 | 0.03 | 0.83 | 0.35 | 96 | 1016.8 |
| 20260903061604 | 66 | 252 | 1.7 | 5.2 | 0.03 | 0.83 | 0.35 | 96 | 1016.8 |
| 20260903061104 | 66 | 265 | 0.0 | 0.9 | 0.04 | 0.83 | 0.35 | 96 | 1016.8 |
| 20260903060604 | 66 | 265 | 0.9 | 2.6 | 0.04 | 0.82 | 0.34 | 96 | 1016.9 |
| 20260903055104 | 66 | 259 | 0.0 | 0.0 | 0.10 | 0.82 | 0.34 | 96 | 1017.1 |
| 20260903054603 | 66 | 259 | 0.0 | 0.0 | 0.13 | 0.82 | 0.34 | 96 | 1017.4 |
| 20260903054104 | 66 | 259 | 0.0 | 0.0 | 0.15 | 0.82 | 0.34 | 96 | 1017.7 |
| 20260903053104 | 66 | 259 | 0.0 | 0.0 | 0.19 | 0.81 | 0.33 | 95 | 1018.2 |
| 20260903052605 | 66 | 259 | 0.0 | 2.6 | 0.22 | 0.81 | 0.33 | 95 | 1018.2 |
| 20260903052104 | 66 | 257 | 1.7 | 4.3 | 0.24 | 0.80 | 0.32 | 95 | 1018.2 |
| 20260903051603 | 66 | 272 | 0.9 | 2.6 | 0.32 | 0.80 | 0.32 | 95 | 1018.1 |
| 20260903050603 | 66 | 180 | 1.7 | 7.0 | 0.30 | 0.78 | 0.30 | 95 | 1017.9 |
| 20260903050104 | 66 | 174 | 1.7 | 4.3 | 0.28 | 0.76 | 0.28 | 95 | 1018.0 |
| 20260903045604 | 66 | 184 | 0.9 | 2.6 | 0.26 | 0.74 | 0.26 | 95 | 1018.4 |
| 20260903045103 | 66 | 188 | 1.7 | 2.6 | 0.24 | 0.72 | 0.24 | 95 | 1018.8 |
| 20260903044604 | 66 | 190 | 0.9 | 2.6 | 0.21 | 0.69 | 0.21 | 94 | 1019.3 |
| 20260903044104 | 66 | 263 | 0.0 | 0.9 | 0.19 | 0.67 | 0.19 | 94 | 1019.8 |
| 20260903043604 | 66 | 263 | 0.9 | 2.6 | 0.16 | 0.64 | 0.16 | 94 | 1019.9 |
| 20260903043105 | 67 | 269 | 1.7 | 2.6 | 0.14 | 0.62 | 0.14 | 94 | 1020.2 |
| 20260903042105 | 67 | 4 | 5.2 | 13.0 | 0.08 | 0.56 | 0.08 | 93 | 1020.5 |
| 20260903041604 | 68 | 14 | 1.7 | 12.2 | 0.00 | 0.48 | 0.00 | 94 | 1020.6 |
| 20260903041104 | 68 | 250 | 1.7 | 2.6 | 0.00 | 0.48 | 0.00 | 94 | 1019.9 |
| 20260903040605 | 67 | 249 | 0.9 | 2.6 | 0.00 | 0.48 | 0.00 | 94 | 1019.4 |
| 20260903035603 | 67 | 249 | 0.9 | 2.6 | 0.00 | 0.48 | 0.48 | 93 | 1019.3 |
| 20260903035105 | 68 | 249 | 0.0 | 0.0 | 0.00 | 0.48 | 0.48 | 93 | 1019.4 |
| 20260903034604 | 67 | 249 | 0.0 | 0.0 | 0.00 | 0.48 | 0.48 | 93 | 1019.5 |
| 20260903034103 | 67 | 249 | 0.0 | 0.9 | 0.00 | 0.48 | 0.48 | 93 | 1019.6 |
| 20260903033604 | 67 | 249 | 0.0 | 1.7 | 0.00 | 0.48 | 0.48 | 93 | 1019.6 |
| 20260903033104 | 67 | 249 | 0.0 | 1.7 | 0.00 | 0.48 | 0.48 | 93 | 1019.5 |
| 20260903032603 | 67 | 249 | 0.0 | 2.6 | 0.00 | 0.48 | 0.48 | 93 | 1019.6 |
| 20260903032104 | 67 | 249 | 0.0 | 2.6 | 0.00 | 0.48 | 0.48 | 93 | 1019.8 |
| 20260903031603 | 67 | 247 | 2.6 | 6.1 | 0.00 | 0.48 | 0.48 | 93 | 1019.7 |
| 20260903030103 | 67 | 266 | 1.7 | 2.6 | 0.00 | 0.48 | 0.48 | 93 | 1019.1 |
| 20260903025604 | 67 | 170 | 0.0 | 0.0 | 0.00 | 0.48 | 0.48 | 93 | 1018.9 |
| 20260903025103 | 67 | 170 | 0.0 | 1.7 | 0.00 | 0.48 | 0.48 | 93 | 1018.9 |
| 20260903024604 | 67 | 170 | 0.9 | 2.6 | 0.00 | 0.48 | 0.48 | 93 | 1019.0 |
| 20260903024104 | 67 | 229 | 0.0 | 0.0 | 0.00 | 0.48 | 0.48 | 93 | 1019.6 |
| 20260903023104 | 67 | 167 | 0.0 | 0.0 | 0.00 | 0.48 | 0.48 | 93 | 1020.0 |
| 20260903022605 | 67 | 167 | 0.0 | 0.0 | 0.00 | 0.48 | 0.48 | 93 | 1020.0 |
| 20260903022104 | 67 | 167 | 0.0 | 0.0 | 0.00 | 0.48 | 0.48 | 93 | 1020.0 |
| 20260903021604 | 67 | 167 | 0.0 | 0.0 | 0.00 | 0.48 | 0.48 | 93 | 1020.3 |
| 20260903021104 | 67 | 167 | 0.0 | 0.0 | 0.00 | 0.48 | 0.48 | 93 | 1020.2 |
| 20260903020604 | 67 | 167 | 0.0 | 0.0 | 0.00 | 0.48 | 0.48 | 93 | 1020.1 |
| 20260903020105 | 66 | 167 | 0.0 | 0.0 | 0.00 | 0.48 | 0.48 | 93 | 1020.2 |
| 20260903015103 | 66 | 167 | 0.9 | 1.7 | 0.00 | 0.48 | 0.48 | 93 | 1020.3 |
| 20260903014604 | 66 | 167 | 0.0 | 2.6 | 0.00 | 0.48 | 0.48 | 92 | 1020.2 |
| 20260903014104 | 66 | 167 | 0.0 | 1.7 | 0.00 | 0.48 | 0.48 | 92 | 1020.3 |
| 20260903013604 | 66 | 173 | 0.0 | 2.6 | 0.00 | 0.48 | 0.48 | 93 | 1020.2 |
| 20260903013104 | 66 | 174 | 0.0 | 2.6 | 0.00 | 0.48 | 0.48 | 93 | 1020.2 |
| 20260903012604 | 66 | 174 | 0.9 | 6.1 | 0.00 | 0.48 | 0.48 | 93 | 1020.0 |
| 20260903012106 | 66 | 190 | 0.9 | 1.7 | 0.00 | 0.48 | 0.48 | 93 | 1020.0 |
| 20260903011605 | 66 | 190 | 0.0 | 0.9 | 0.00 | 0.48 | 0.48 | 93 | 1020.0 |
| 20260903011104 | 66 | 190 | 0.9 | 2.6 | 0.00 | 0.48 | 0.48 | 93 | 1020.3 |
| 20260903010104 | 66 | 212 | 0.9 | 2.6 | 0.00 | 0.48 | 0.48 | 93 | 1020.4 |
| 20260903005605 | 66 | 213 | 0.9 | 2.6 | 0.00 | 0.48 | 0.48 | 93 | 1020.5 |
| 20260903005105 | 66 | 213 | 0.9 | 2.6 | 0.00 | 0.48 | 0.48 | 93 | 1020.4 |
| 20260903004604 | 66 | 169 | 0.0 | 0.0 | 0.00 | 0.48 | 0.48 | 93 | 1020.3 |
| 20260903004104 | 66 | 169 | 0.0 | 1.7 | 0.00 | 0.48 | 0.48 | 93 | 1020.3 |
| 20260903003604 | 66 | 169 | 0.0 | 0.9 | 0.00 | 0.48 | 0.48 | 93 | 1020.3 |
| 20260903003104 | 66 | 169 | 0.0 | 1.7 | 0.00 | 0.48 | 0.48 | 94 | 1020.2 |
| 20260903002104 | 66 | 161 | 2.6 | 7.0 | 0.00 | 0.48 | 0.48 | 94 | 1020.3 |
| 20260903001604 | 66 | 205 | 0.0 | 0.9 | 0.00 | 0.48 | 0.48 | 94 | 1020.4 |
| 20260903001104 | 66 | 205 | 0.9 | 2.6 | 0.00 | 0.48 | 0.48 | 94 | 1020.5 |
| 20260903000604 | 66 | 197 | 0.0 | 1.7 | 0.00 | 0.48 | 0.48 | 94 | 1020.3 |
| 20260902235604 | 66 | 197 | 0.0 | 0.0 | 0.00 | 0.48 | 0.48 | 94 | 1020.3 |
| 20260902235104 | 66 | 197 | 0.9 | 2.6 | 0.00 | 0.48 | 0.48 | 94 | 1020.2 |
| 20260902234604 | 66 | 159 | 0.0 | 0.0 | 0.00 | 0.48 | 0.48 | 94 | 1020.1 |
| 20260902234103 | 66 | 159 | 0.0 | 0.0 | 0.00 | 0.48 | 0.48 | 94 | 1019.8 |
| 20260902233604 | 66 | 159 | 0.0 | 0.0 | 0.00 | 0.48 | 0.48 | 93 | 1019.7 |
| 20260902233105 | 66 | 159 | 0.0 | 2.6 | 0.00 | 0.48 | 0.48 | 93 | 1019.7 |
| 20260902232103 | 66 | 159 | 0.0 | 0.0 | 0.00 | 0.48 | 0.48 | 94 | 1020.1 |
| 20260902231604 | 66 | 159 | 0.0 | 4.3 | 0.00 | 0.48 | 0.48 | 93 | 1020.3 |
| 20260902231104 | 66 | 168 | 1.7 | 6.1 | 0.00 | 0.48 | 0.48 | 94 | 1020.0 |
| 20260902230604 | 66 | 157 | 2.6 | 6.1 | 0.00 | 0.48 | 0.48 | 94 | 1020.1 |
| 20260902230104 | 66 | 184 | 0.9 | 7.0 | 0.00 | 0.48 | 0.48 | 93 | 1020.2 |
| 20260902225604 | 66 | 155 | 2.6 | 8.7 | 0.00 | 0.48 | 0.48 | 94 | 1020.2 |
| 20260902225104 | 66 | 159 | 3.5 | 10.4 | 0.00 | 0.48 | 0.48 | 94 | 1020.1 |
| 20260902224103 | 66 | 159 | 0.9 | 2.6 | 0.00 | 0.48 | 0.48 | 94 | 1020.5 |
| 20260902223604 | 66 | 178 | 1.7 | 7.0 | 0.00 | 0.48 | 0.48 | 94 | 1020.7 |
| 20260902223104 | 66 | 160 | 2.6 | 7.0 | 0.00 | 0.48 | 0.48 | 94 | 1020.5 |
| 20260902222604 | 67 | 158 | 2.6 | 10.4 | 0.00 | 0.48 | 0.48 | 94 | 1020.6 |
| 20260902221604 | 67 | 139 | 1.7 | 2.6 | 0.00 | 0.48 | 0.48 | 94 | 1020.7 |
| 20260902221104 | 67 | 164 | 1.7 | 5.2 | 0.00 | 0.48 | 0.48 | 94 | 1021.0 |
| 20260902220604 | 67 | 138 | 0.9 | 7.8 | 0.00 | 0.48 | 0.48 | 94 | 1021.1 |
| 20260902215605 | 68 | 152 | 1.7 | 2.6 | 0.00 | 0.48 | 0.48 | 94 | 1021.2 |
| 20260902215105 | 68 | 200 | 0.0 | 0.0 | 0.00 | 0.48 | 0.48 | 94 | 1021.2 |
| 20260902214603 | 68 | 200 | 0.0 | 0.9 | 0.00 | 0.48 | 0.48 | 94 | 1021.2 |
| 20260902214105 | 68 | 200 | 0.0 | 0.9 | 0.00 | 0.48 | 0.48 | 94 | 1021.1 |
| 20260902213603 | 68 | 200 | 0.0 | 0.9 | 0.00 | 0.48 | 0.48 | 94 | 1020.9 |
| 20260902213104 | 68 | 200 | 0.0 | 0.0 | 0.00 | 0.48 | 0.48 | 94 | 1020.8 |
| 20260902212604 | 68 | 201 | 0.0 | 0.0 | 0.00 | 0.48 | 0.48 | 94 | 1020.6 |
| 20260902212105 | 68 | 201 | 0.0 | 1.7 | 0.00 | 0.48 | 0.48 | 94 | 1020.5 |
| 20260902211603 | 68 | 201 | 0.0 | 1.7 | 0.00 | 0.48 | 0.48 | 94 | 1020.4 |
| 20260902211104 | 68 | 203 | 0.0 | 2.6 | 0.00 | 0.48 | 0.48 | 94 | 1020.4 |
| 20260902210604 | 68 | 192 | 0.0 | 1.7 | 0.00 | 0.48 | 0.48 | 94 | 1020.5 |
| 20260902210104 | 68 | 162 | 0.0 | 1.7 | 0.00 | 0.48 | 0.48 | 94 | 1020.6 |
| 20260902205604 | 68 | 162 | 0.0 | 0.9 | 0.00 | 0.48 | 0.48 | 94 | 1020.5 |
| 20260902204103 | 68 | 162 | 0.0 | 1.7 | 0.00 | 0.48 | 0.48 | 94 | 1020.5 |
| 20260902203604 | 68 | 162 | 0.9 | 2.6 | 0.00 | 0.48 | 0.48 | 94 | 1020.7 |
| 20260902203104 | 68 | 162 | 1.7 | 2.6 | 0.00 | 0.48 | 0.48 | 94 | 1020.6 |
| 20260902202604 | 68 | 155 | 1.7 | 2.6 | 0.00 | 0.48 | 0.48 | 94 | 1020.6 |
| 20260902201604 | 67 | 148 | 0.9 | 2.6 | 0.00 | 0.48 | 0.48 | 95 | 1020.7 |
| 20260902201104 | 68 | 148 | 1.7 | 2.6 | 0.00 | 0.48 | 0.48 | 95 | 1020.7 |
| 20260902200604 | 68 | 155 | 0.0 | 0.0 | 0.00 | 0.48 | 0.48 | 95 | 1020.6 |
| 20260902200103 | 67 | 155 | 0.0 | 0.0 | 0.00 | 0.48 | 0.48 | 95 | 1020.6 |
| 20260902195603 | 67 | 155 | 0.0 | 0.0 | 0.01 | 0.48 | 0.48 | 95 | 1020.7 |
| 20260902195104 | 67 | 155 | 0.0 | 0.9 | 0.01 | 0.48 | 0.48 | 95 | 1020.7 |
| 20260902194603 | 67 | 155 | 0.0 | 1.7 | 0.01 | 0.48 | 0.48 | 95 | 1020.9 |
| 20260902194105 | 67 | 155 | 0.0 | 1.7 | 0.01 | 0.48 | 0.48 | 95 | 1020.9 |
| 20260902193604 | 67 | 155 | 0.0 | 0.0 | 0.02 | 0.48 | 0.48 | 95 | 1020.9 |
| 20260902193104 | 67 | 155 | 0.0 | 0.0 | 0.03 | 0.48 | 0.48 | 95 | 1020.9 |
| 20260902192603 | 67 | 201 | 0.0 | 0.9 | 0.03 | 0.48 | 0.48 | 95 | 1021.0 |
| 20260902192105 | 67 | 201 | 0.0 | 0.0 | 0.05 | 0.48 | 0.48 | 95 | 1021.0 |
| 20260902191604 | 66 | 201 | 0.9 | 1.7 | 0.07 | 0.48 | 0.48 | 95 | 1021.1 |
| 20260902191104 | 66 | 201 | 0.0 | 0.9 | 0.10 | 0.48 | 0.48 | 95 | 1021.3 |
| 20260902185603 | 66 | 201 | 0.0 | 0.0 | 0.17 | 0.47 | 0.47 | 95 | 1021.3 |
| 20260902184603 | 66 | 201 | 0.0 | 1.7 | 0.23 | 0.47 | 0.47 | 95 | 1021.4 |
| 20260902184104 | 66 | 201 | 0.0 | 0.9 | 0.34 | 0.47 | 0.47 | 95 | 1021.5 |
| 20260902183603 | 65 | 129 | 0.9 | 2.6 | 0.43 | 0.46 | 0.46 | 94 | 1021.6 |
| 20260902183104 | 65 | 128 | 0.0 | 0.9 | 0.45 | 0.45 | 0.45 | 94 | 1022.0 |
| 20260902182605 | 65 | 128 | 0.9 | 2.6 | 0.45 | 0.45 | 0.45 | 94 | 1021.9 |
| 20260902182104 | 65 | 161 | 0.9 | 2.6 | 0.43 | 0.43 | 0.43 | 94 | 1021.9 |
| 20260902181104 | 65 | 177 | 0.9 | 2.6 | 0.38 | 0.38 | 0.38 | 93 | 1022.1 |
| 20260902180604 | 66 | 198 | 1.7 | 2.6 | 0.37 | 0.37 | 0.37 | 93 | 1022.5 |
| 20260902180104 | 66 | 319 | 0.0 | 0.0 | 0.34 | 0.34 | 0.34 | 92 | 1022.9 |
| 20260902175604 | 66 | 319 | 0.0 | 0.9 | 0.30 | 0.30 | 0.30 | 92 | 1022.9 |
| 20260902174604 | 66 | 97 | 1.7 | 2.6 | 0.24 | 0.24 | 0.24 | 91 | 1022.8 |
| 20260902174104 | 67 | 145 | 0.0 | 1.7 | 0.13 | 0.13 | 0.13 | 91 | 1022.5 |
| 20260902173603 | 67 | 145 | 0.0 | 0.0 | 0.03 | 0.03 | 0.03 | 90 | 1022.5 |
| 20260902173103 | 67 | 145 | 0.0 | 0.0 | 0.00 | 0.00 | 0.00 | 90 | 1022.4 |
| 20260902172104 | 67 | 144 | 0.0 | 1.7 | 0.00 | 0.00 | 0.00 | 90 | 1021.9 |
| 20260902171605 | 67 | 144 | 0.9 | 2.6 | 0.00 | 0.00 | 0.00 | 90 | 1021.9 |
| 20260902170103 | 66 | 185 | 0.0 | 1.7 | 0.00 | 0.00 | 0.00 | 90 | 1021.8 |